{"data":{"norad_id":62959,"epoch":"2026-05-24T23:34:59.441088Z","epoch_age_seconds":76316,"freshness":"FRESH","line1":"1 62959U 25029M   26144.98263242  .00021230  00000+0  72673-3 0  9997","line2":"2 62959  53.1593 238.4202 0001173  81.9906 278.1227 15.30206235 72998","mean_motion":15.30206235,"eccentricity":0.0001173,"inclination_deg":53.1593,"raan_deg":238.4202,"arg_perigee_deg":81.9906,"mean_anomaly_deg":278.1227,"bstar":0.00072673,"rev_number":7299,"period_min":94.104962263469,"perigee_km":474.39255688238,"apogee_km":476.00034891043,"semimajor_km":6853.3334528964,"source":"CELESTRAK","updated_at":"2026-05-25T13:38:19.826566Z"}}